Date String (YYYY-MM-DD hh:mm:ss) UTC,Instrument flags,Ambient pressure (hPa),Sample flow (lpm),Bypass flow (lpm),Sample temperature (°C),Ambient temperature (°C),ASC tube jacket temperature (°C),LED temperature (°C),Box temperature (°C),Sample RH (%),Span deviation,Mass concentration (μg/m³),Mass concentration (μg/m³),Mass concentration (μg/m³)
DateTimeUTC,F1_M11,P_M11,Q1_M11,Q2_M11,T1_M11,T2_M11,T3_M11,T4_M11,T5_M11,U1_M11,ZSPAN_M11,X0_M11,X2_M11,X1_M11
2021-11-30 03:00:00,,0827.0,4.99,0.00,29.8,28.8,00.0,38.8,31.5,11.0,0000.0,0011.20,0001.90,0000.57
2021-11-30 03:01:00,,0826.9,4.99,0.00,29.8,28.8,00.0,38.8,31.4,11.0,0000.0,0011.36,0001.86,0000.59
2021-11-30 03:02:00,,0826.9,5.00,0.00,29.7,28.8,00.0,38.8,31.4,11.0,0000.0,0009.71,0001.81,0000.60
2021-11-30 03:03:00,,0827.2,4.99,0.00,29.7,28.8,00.0,38.8,31.4,11.0,0000.0,0009.38,0001.82,0000.60
2021-11-30 03:04:00,,0826.9,5.02,0.00,29.7,28.8,00.0,38.8,31.4,11.0,0000.0,0009.34,0001.86,0000.60
2021-11-30 03:05:00,,0826.9,5.00,0.00,29.7,28.8,00.0,38.8,31.4,11.0,0000.0,0008.83,0001.82,0000.61
2021-11-30 03:06:00,,0826.9,4.99,0.00,29.8,28.9,00.0,38.8,31.5,11.0,0000.0,0008.64,0001.81,0000.62
2021-11-30 03:07:00,,0826.9,5.01,0.00,29.8,28.9,00.0,38.8,31.5,11.0,0000.0,0008.86,0001.84,0000.63
2021-11-30 03:08:00,,0826.9,5.00,0.00,29.8,28.9,00.0,38.8,31.5,10.9,0000.0,0008.75,0001.83,0000.62
2021-11-30 03:09:00,,0826.9,5.00,0.00,29.8,28.9,00.0,38.8,31.5,10.9,0000.0,0008.29,0001.87,0000.62
2021-11-30 03:10:00,,0826.9,5.00,0.00,29.8,28.9,00.0,38.8,31.5,10.9,0000.0,0008.18,0001.82,0000.60
2021-11-30 03:11:00,,0826.9,5.00,0.00,29.8,28.9,00.0,38.8,31.5,10.9,0000.0,0007.27,0001.72,0000.57
2021-11-30 03:12:00,,0827.1,5.01,0.00,29.8,28.9,00.0,38.8,31.5,10.9,0000.0,0007.04,0001.64,0000.54
2021-11-30 03:13:00,,0827.1,5.01,0.00,29.8,28.9,00.0,38.8,31.5,10.9,0000.0,0007.18,0001.70,0000.55
2021-11-30 03:14:00,,0827.1,5.00,0.00,29.7,28.8,00.0,38.8,31.4,10.9,0000.0,0007.62,0001.73,0000.55
2021-11-30 03:15:00,,0826.9,4.99,0.00,29.7,28.8,00.0,38.8,31.4,11.0,0000.0,0008.34,0001.73,0000.55
2021-11-30 03:16:00,,0826.9,4.99,0.00,29.7,28.8,00.0,38.8,31.4,11.0,0000.0,0008.36,0001.75,0000.56
2021-11-30 03:17:00,,0827.0,5.01,0.00,29.7,28.8,00.0,38.8,31.4,11.0,0000.0,0008.92,0001.75,0000.57
2021-11-30 03:18:00,,0826.9,5.00,0.00,29.7,28.8,00.0,38.8,31.4,11.0,0000.0,0009.63,0001.79,0000.58
2021-11-30 03:19:00,,0826.9,5.00,0.00,29.7,28.8,00.0,38.8,31.4,11.0,0000.0,0010.11,0001.92,0000.60
2021-11-30 03:20:00,,0826.9,4.99,0.00,29.7,28.9,00.0,38.8,31.5,11.0,0000.0,0010.71,0001.93,0000.61
2021-11-30 03:21:00,,0826.9,5.01,0.00,29.8,28.9,00.0,38.8,31.5,11.0,0000.0,0011.72,0002.07,0000.64
2021-11-30 03:22:00,,0826.9,5.00,0.00,29.8,28.9,00.0,38.8,31.5,10.9,0000.0,0012.68,0002.25,0000.67
2021-11-30 03:23:00,,0826.9,4.99,0.00,29.8,28.9,00.0,38.8,31.6,10.9,0000.0,0013.01,0002.38,0000.69
2021-11-30 03:24:00,,0826.9,5.00,0.00,29.8,28.9,00.0,38.8,31.5,11.0,0000.0,0012.84,0002.37,0000.69
2021-11-30 03:25:00,,0826.8,4.99,0.00,29.8,28.9,00.0,38.8,31.5,11.0,0000.0,0012.48,0002.31,0000.69
2021-11-30 03:26:00,,0826.9,5.02,0.00,29.8,28.9,00.0,38.8,31.5,11.0,0000.0,0012.14,0002.27,0000.69
2021-11-30 03:27:00,,0826.8,4.99,0.00,29.8,28.9,00.0,38.8,31.5,11.0,0000.0,0013.41,0002.26,0000.68
2021-11-30 03:28:00,,0826.9,5.00,0.00,29.7,28.9,00.0,38.8,31.5,11.0,0000.0,0013.91,0002.27,0000.66
2021-11-30 03:29:00,,0826.9,5.01,0.00,29.7,28.9,00.0,38.8,31.4,11.0,0000.0,0012.64,0002.14,0000.63
2021-11-30 03:30:00,,0826.9,5.00,0.00,29.7,28.9,00.0,38.8,31.4,11.0,0000.0,0012.16,0001.97,0000.61
2021-11-30 03:31:00,,0826.9,4.98,0.00,29.7,28.8,00.0,38.8,31.4,11.0,0000.0,0011.47,0001.87,0000.60
2021-11-30 03:32:00,,0826.9,5.01,0.00,29.7,28.8,00.0,38.8,31.4,11.0,0000.0,0010.68,0001.76,0000.59
2021-11-30 03:33:00,,0826.9,5.00,0.00,29.7,28.8,00.0,38.8,31.4,11.0,0000.0,0010.13,0001.61,0000.58
2021-11-30 03:34:00,,0827.0,5.01,0.00,29.6,28.8,00.0,38.7,31.3,11.1,0000.0,0009.40,0001.53,0000.56
2021-11-30 03:35:00,,0826.9,5.00,0.00,29.6,28.8,00.0,38.7,31.3,11.1,0000.0,0009.49,0001.46,0000.55
2021-11-30 03:36:00,,0826.9,5.00,0.00,29.6,28.8,00.0,38.7,31.3,11.1,0000.0,0010.03,0001.46,0000.55
2021-11-30 03:37:00,,0827.0,5.00,0.00,29.6,28.7,00.0,38.7,31.2,11.1,0000.0,0009.66,0001.45,0000.54
2021-11-30 03:38:00,,0827.1,5.01,0.00,29.6,28.7,00.0,38.7,31.3,11.1,0000.0,0008.02,0001.44,0000.53
2021-11-30 03:39:00,,0827.1,5.00,0.00,29.6,28.7,00.0,38.7,31.3,11.1,0000.0,0006.69,0001.38,0000.53
2021-11-30 03:40:00,,0827.1,5.00,0.00,29.6,28.8,00.0,38.7,31.3,11.1,0000.0,0006.86,0001.42,0000.54
2021-11-30 03:41:00,,0826.9,4.99,0.00,29.6,28.8,00.0,38.7,31.3,11.1,0000.0,0007.13,0001.43,0000.55
2021-11-30 03:42:00,,0827.0,5.01,0.00,29.6,28.8,00.0,38.7,31.4,11.1,0000.0,0007.29,0001.38,0000.53
2021-11-30 03:43:00,,0827.0,5.00,0.00,29.6,28.8,00.0,38.7,31.4,11.1,0000.0,0007.52,0001.38,0000.53
2021-11-30 03:44:00,,0827.2,5.00,0.00,29.6,28.9,00.0,38.7,31.4,11.0,0000.0,0007.35,0001.44,0000.52
2021-11-30 03:45:00,,0827.1,5.01,0.00,29.7,28.9,00.0,38.7,31.4,11.0,0000.0,0007.24,0001.42,0000.53
2021-11-30 03:46:00,,0827.1,5.00,0.00,29.7,28.9,00.0,38.7,31.4,11.0,0000.0,0007.33,0001.42,0000.52
2021-11-30 03:47:00,,0827.1,5.00,0.00,29.7,28.9,00.0,38.7,31.4,11.0,0000.0,0007.17,0001.37,0000.51
2021-11-30 03:48:00,,0827.1,4.99,0.00,29.7,28.9,00.0,38.7,31.4,11.0,0000.0,0006.80,0001.30,0000.50
2021-11-30 03:49:00,,0827.1,5.00,0.00,29.7,28.9,00.0,38.7,31.4,11.1,0000.0,0006.34,0001.18,0000.48
2021-11-30 03:50:00,,0827.1,5.01,0.00,29.7,28.9,00.0,38.7,31.4,11.1,0000.0,0006.19,0001.11,0000.46
2021-11-30 03:51:00,,0827.1,4.98,0.00,29.7,28.8,00.0,38.7,31.4,11.0,0000.0,0005.85,0001.04,0000.44
2021-11-30 03:52:00,,0827.1,5.00,0.00,29.7,28.8,00.0,38.7,31.3,11.0,0000.0,0005.09,0000.98,0000.42
2021-11-30 03:53:00,,0827.1,5.00,0.00,29.7,28.8,00.0,38.7,31.3,11.0,0000.0,0004.33,0000.97,0000.41
2021-11-30 03:54:00,,0827.1,5.00,0.00,29.7,28.8,00.0,38.7,31.4,11.1,0000.0,0003.40,0000.87,0000.39
2021-11-30 03:55:00,,0827.2,5.01,0.00,29.7,28.8,00.0,38.7,31.3,11.1,0000.0,0003.11,0000.76,0000.37
2021-11-30 03:56:00,,0827.2,5.01,0.00,29.7,28.8,00.0,38.7,31.3,11.1,0000.0,0002.85,0000.69,0000.35
2021-11-30 03:57:00,,0827.2,4.99,0.00,29.7,28.9,00.0,38.7,31.3,11.1,0000.0,0002.37,0000.64,0000.34
2021-11-30 03:58:00,,0827.2,5.01,0.00,29.7,28.9,00.0,38.7,31.4,11.1,0000.0,0001.24,0000.58,0000.33
2021-11-30 03:59:00,,0827.2,5.01,0.00,29.7,28.9,00.0,38.7,31.4,11.1,0000.0,0001.09,0000.55,0000.33
